Terug naar catalogus

HULIANWANG DIGUI-91

ActiefCommunicatieLEO
NORAD 65999·PAYLOAD·🇨🇳 China

Gelanceerd Oct 16, 2025 vanaf Wenchang Space Launch Site

Loading…

Volgende Passages (komende 24 uur)

TLE

VersSource: Space-Track

Epoch: Sep 14, 2026, 14:29 UTC

1 65999U 25231E   26257.60354572 -.00000100  00000-0  52583-4 0  9994
2 65999  50.0001 214.9351 0000358  41.0668 319.0231 13.29329617 44787

Volg HULIANWANG DIGUI-91 in realtime met AllMySat

Download on the App Store